Regional Weather Roundup
Issued by NWS Sterling, VA

Home | Current Version | Previous Version | Text Only | Print | Product List | Glossary On
Versions: 1 2 3 4 5 6 7 8 9 10 11 12 13 14 15 16 17 18 19 20 21 22 23 24 25 26 27 28 29 30 31 32 33 34 35 36 37 38 39 40 41 42 43 44 45 46 47 48 49 50
000
ASUS41 KLWX 230010
RWRLWX

REGIONAL WEATHER ROUNDUP
NATIONAL WEATHER SERVICE BALTIMORE MD/WASHINGTON DC
800 PM EDT FRI AUG 22 2014

Note: "FAIR" indicates few or no clouds below 12,000 feet
with no significant weather and/or obstructions to visibility.
 TC=TEMPERATURE CELSIUS

 * =Non NWS site. Station does not report precipitation (e.g. rain,
    snow, etc.), thunder, or fog.

DCZ001-MDZ009-015-VAZ040>042-051-053>054-230100-
WASHINGTON METRO
  /KDAA//-FT BELVOIR

CITY           SKY/WX    TMP DP  RH WIND       PRES   REMARKS
WASHINGTON NAT MOCLDY    79  69  71 E9        29.96S
DULLES         PTCLDY    76  70  82 E8        29.96S
ANDREWS AFB    PTCLDY    74  71  89 E6        29.97R
QUANTICO       MOCLDY    78  71  79 SE5       29.96S
COLLEGE PARK*  PTCLDY    75  72  88 CALM      29.97R
LEESBURG*      PTCLDY    79  72  78 E3        29.97R
MANASSAS*      PTCLDY    75  73  94 SE5       29.95S
GAITHERSBURG*  MOCLDY    72  70  94 E3        30.01S

$$

MDZ006>007-011-014-230100-
BALTIMORE METRO

CITY           SKY/WX    TMP DP  RH WIND       PRES   REMARKS
BWI AIRPORT    MOCLDY    75  68  78 E6        29.97S
MD SCIENCE CTR   N/A     77  68  73 MISG      29.97S
MARTIN STATE   MOCLDY    77  72  83 E12       29.99R
ANNAPOLIS      CLOUDY    76  69  79 SE13      29.97S
FORT MEADE*    PTCLDY    72  68  88 E5        29.99S

$$

MDZ012-015-019>023-230100-
MARYLAND EASTERN SHORE

CITY           SKY/WX    TMP DP  RH WIND       PRES   REMARKS
OCEAN CITY     CLOUDY    75  68  78 E12       29.98R
SALISBURY      CLOUDY    76  69  79 E7        29.99R
BAY BRIDGE AP*   N/A     73  66  78 E9        29.97S
CAMBRIDGE*     CLEAR     72  70  94 E5        29.97S
EASTON*        MOCLDY    75  72  88 CALM      30.01S

$$

MDZ017>025-230100-
SOUTHERN MARYLAND

CITY           SKY/WX    TMP DP  RH WIND       PRES   REMARKS
PATUXENT RIVER MOCLDY    74  68  81 E10       29.96S
ST INIGOES     PTCLDY    72  67  84 E5        29.96R
LEONARDTOWN*   PTCLDY    72  68  88 E6        29.98F

$$

MDZ003>005-230100-
NORTH CENTRAL MARYLAND

CITY           SKY/WX    TMP DP  RH WIND       PRES   REMARKS
FREDERICK*     MOCLDY    75  73  94 CALM      29.99R
HAGERSTOWN APT PTCLDY    76  68  76 SE5       29.98R
WESTMINSTER*   PTCLDY    73  70  88 SE5       30.00R

$$

MDZ501>502-230100-
WESTERN MARYLAND

CITY           SKY/WX    TMP DP  RH WIND       PRES   REMARKS
OAKLAND*       PTCLDY    66 N/A N/A SW5       30.07R HAZE
CUMBERLAND*    PTCLDY    73  72  94 CALM      30.01R

$$

VAZ025>031-230100-
SHENANDOAH VALLEY

CITY           SKY/WX    TMP DP  RH WIND       PRES   REMARKS
WINCHESTER*    PTCLDY    73  68  83 CALM      29.97R
STAUNTON*      MOCLDY    76  69  79 CALM      30.00S

$$

WVZ021-048>050-054>055-230100-
EASTERN WEST VIRGINIA PANHANDLE

CITY           SKY/WX    TMP DP  RH WIND       PRES   REMARKS
MARTINSBURG    CLEAR     76  68  76 CALM      29.97R
PETERSBURG*    NOT AVBL

$$

VAZ036>039-050-230100-
CENTRAL FOOTHILLS

CITY           SKY/WX    TMP DP  RH WIND       PRES   REMARKS
CHARLOTTESVILL MOCLDY    75  71  87 CALM      29.97S
ORANGE*        PTCLDY    73  70  88 CALM      29.98S

$$

VAZ055>057-230100-
NORTH AND CENTRAL PIEDMONT

CITY           SKY/WX    TMP DP  RH WIND       PRES   REMARKS
FREDERICKSBRG* PTCLDY    77  72  84 E3        29.94S
STAFFORD*      PTCLDY    74  74 100 CALM      29.99S

$$

NCZ024-NYZ072-PAZ021-071-VAZ022-071-230100-
OTHER REGIONAL OBSERVATIONS

CITY           SKY/WX    TMP DP  RH WIND       PRES   REMARKS
NEW YORK CITY  CLOUDY    70  60  70 CALM      30.06S
PHILADELPHIA   CLOUDY    73  64  73 SE8       30.01R
PITTSBURGH     LGT RAIN  77  71  82 SW5       29.96R
ROANOKE        CLOUDY    77  74  90 W3        30.01R
RICHMOND       CLOUDY    79  71  76 E5        29.95R
RALEIGH        MOCLDY    79  73  82 CALM      29.95F

$$

ANZ530>537-230100-
MARINE OBSERVATIONS

STATION/POSITION TIME  TEMP    WIND        PRES
                       AIR SEA DIR/SP/G
                 (UTC) (F)     (DEG/KT/KT) (MB)
THOMAS PT LIGHT  0000   76 78  110/ 15/ 16 1015.3R
BALT KEY BRIDGE  0000   76     110/ 12/ 13 1014.5F
COVE POINT       0000   74     130/ 12/ 13 1014.6S
LEWISETTA        0000   76 80  110/ 11/ 12 1014.2R
SOLOMONS ISLAND  0000      80                N/A
PINEY POINT      0000          110/  9/ 10   N/A

$$



USA.gov is the U.S. government's official web portal to all federal, state and local government web resources and services.